星链-1418 (STARLINK-1418 )

导读 | 星芒AI

STARLINK-1418 是 SpaceX Starlink 项目中的一颗低轨通信卫星,旨在为全球用户提供高速互联网服务。该卫星属于 Starlink 群体中的一代卫星,部署在约 550 公里的轨道高度,采用先进的推进系统和激光通信技术,以提升网络效率和稳定性。STARLINK-1418 于 2021 年发射,是 SpaceX 扩展全球宽带覆盖计划的一部分,有助于改善偏远地区的网络接入条件。

基本信息
目录编号:
45708
目录名称:
STARLINK-1418
国际标识:
2020-035BD
轨道中心:
EARTH
卫星名称:
星链-1418
卫星全名:
星链-1418 (STARLINK-1418 )
卫星状态:
已陨落 最后检测时间 2025-04-12
发射日期:
2020-06-04 UTC
国别 :
美国 (US)
星等 :
--
轨道信息
数据来源 国际轨道数据
星历时间: 2025-04-12T08:20:10+0800
轨道信息已过期248天
半长轴: 6550.385km
偏心率: 0.0004772
轨道倾角: 53.035°
近地点辐角 184.847°
升交点赤经 29.524°
平近点角 279.478°
近地点: 169.124km
远地点: 175.376km
周期: 87.935分钟
每日圈数: 16.375801
详细信息
固有亮度:
5
最大亮度:
2.5
卫星平台:
Starlink V1.0
覆盖范围:
全球
运营商:
太空探索技术公司
运营商所在国:
美国
制造商(研发单位):
太空探索技术公司
制造商所在国:
美国
使用方式:
暂无
卫星简介
星链(Starlink)计划是由太空探索技术公司(SpaceX)提出的一个巨型低轨卫星互联网星座项目,计划在2019年至2024年间在太空搭建由约1.2万颗卫星组成的“星链”网络,其中1584颗将部署在地球上空550千米处的近地轨道,并从2020年开始工作。该卫星仍在工作。